Tracking 17828 objects as of 30-July-2016
HD Live streaming from Space Station
objects crossing your sky now

BONUM 1

Track BONUM 1 now!
BONUM 1 is classified as:


NORAD ID: 25546
Int'l Code: 1998-068A
Perigee: 36,140.1 km
Apogee: 36,149.8 km
Inclination: 3.6 °
Period: 1,454.1 minutes
Semi major axis: 42515 km
RCS: 0.003 m2 (small)
Launch date: November 22, 1998
Source: Commonwealth of Independent States (former USSR) (CIS)
Launch site: AIR FORCE EASTERN TEST RANGE (AFETR)

Television broadcasting; 8 Ku-band, Siberia or Europe, selected.
Your satellite tracking list
Your tracking list is empty





NASA's NSSDC Master Catalog

Two Line Element Set (TLE):
1 25546U 98068A   16210.61304681  .00000000  00000-0  10000-3 0  9996
2 25546   3.5980  68.9417 0001136 240.3878 119.6030  0.99032045 64773
Source of the keplerian elements: AFSPC

N2YO: 906